UKR120 FXMM-FAGG

Flight info

Callsign UKR120
Flight time 1h 9m
Altitude 36000
Route EGTAP UQ8 TIKER UQ58 GABGO
Aircraft IL76/H-SDFGHIM1RTUWXY/LB1

Departure

Time 2026-04-29 18:39
Airport Moshoeshoe I International Airport (FXMM)

Arrival

Time 2026-04-29 19:48
Airport George Airport (FAGG)
Time Latitude Longitude Altitude Speed Heading
2026-04-29 18:26 -29.45555 27.55821 5369 ft 0 kts 154°
2026-04-29 18:29 -29.45554 27.55821 5369 ft 0 kts 154°
2026-04-29 18:34 -29.45556 27.55822 5369 ft 0 kts 165°
2026-04-29 18:34 -29.45571 27.55812 5369 ft 5 kts 247°
2026-04-29 18:34 -29.45551 27.55741 5368 ft 17 kts 297°
2026-04-29 18:35 -29.45507 27.55559 5361 ft 23 kts 275°
2026-04-29 18:35 -29.45462 27.55500 5358 ft 13 kts 354°
2026-04-29 18:35 -29.45340 27.55531 5359 ft 30 kts 17°
2026-04-29 18:35 -29.45086 27.55609 5360 ft 39 kts 16°
2026-04-29 18:36 -29.44813 27.55696 5357 ft 41 kts 15°
2026-04-29 18:36 -29.44532 27.55780 5349 ft 38 kts 15°
2026-04-29 18:36 -29.44298 27.55852 5339 ft 32 kts 19°
2026-04-29 18:36 -29.44236 27.55910 5334 ft 5 kts 36°
2026-04-29 18:37 -29.44233 27.55875 5335 ft 7 kts 205°
2026-04-29 18:37 -29.44240 27.55872 5336 ft 0 kts 201°
2026-04-29 18:37 -29.44243 27.55871 5336 ft 5 kts 200°
2026-04-29 18:37 -29.44446 27.55806 5346 ft 54 kts 195°
2026-04-29 18:38 -29.44960 27.55642 5359 ft 97 kts 194°
2026-04-29 18:38 -29.45739 27.55404 5354 ft 133 kts 194°
2026-04-29 18:38 -29.46689 27.55098 5477 ft 142 kts 197°
2026-04-29 18:38 -29.47676 27.54772 5557 ft 152 kts 196°
2026-04-29 18:39 -29.48699 27.54477 5768 ft 154 kts 193°
2026-04-29 18:39 -29.49766 27.54195 6000 ft 157 kts 194°
2026-04-29 18:39 -29.50836 27.53915 6106 ft 158 kts 196°
2026-04-29 18:39 -29.51750 27.53111 6021 ft 174 kts 234°
2026-04-29 18:40 -29.52574 27.52114 6300 ft 172 kts 219°
2026-04-29 18:40 -29.53544 27.51259 6417 ft 180 kts 215°
2026-04-29 18:40 -29.54620 27.50454 6538 ft 188 kts 212°
2026-04-29 18:40 -29.55818 27.49654 6535 ft 216 kts 209°
2026-04-29 18:41 -29.60597 27.46852 6983 ft 295 kts 206°
2026-04-29 18:41 -29.62522 27.45778 7121 ft 320 kts 206°
2026-04-29 18:42 -29.64567 27.44644 7301 ft 329 kts 206°
2026-04-29 18:42 -29.66639 27.43500 7496 ft 331 kts 206°
2026-04-29 18:42 -29.68717 27.42352 7720 ft 331 kts 206°
2026-04-29 18:42 -29.70797 27.41203 7941 ft 332 kts 206°
2026-04-29 18:43 -29.72889 27.40047 8164 ft 333 kts 206°
2026-04-29 18:43 -29.74993 27.38884 8392 ft 334 kts 206°
2026-04-29 18:43 -29.77095 27.37722 8642 ft 335 kts 206°
2026-04-29 18:43 -29.79213 27.36550 8891 ft 337 kts 206°
2026-04-29 18:44 -29.81348 27.35369 9140 ft 338 kts 206°
2026-04-29 18:44 -29.83455 27.34202 9387 ft 339 kts 206°
2026-04-29 18:44 -29.85604 27.33011 9638 ft 340 kts 206°
2026-04-29 18:44 -29.87755 27.31819 9888 ft 342 kts 206°
2026-04-29 18:45 -29.89891 27.30636 10135 ft 343 kts 206°
2026-04-29 18:45 -29.92032 27.29450 10383 ft 344 kts 206°
2026-04-29 18:45 -29.94217 27.28238 10634 ft 345 kts 206°
2026-04-29 18:45 -29.96374 27.27041 10881 ft 347 kts 206°
2026-04-29 18:46 -29.98561 27.25827 11130 ft 348 kts 206°
2026-04-29 18:46 -30.00747 27.24611 11379 ft 349 kts 206°
2026-04-29 18:46 -30.02925 27.23400 11625 ft 350 kts 206°
2026-04-29 18:46 -30.05137 27.22170 11874 ft 352 kts 206°
2026-04-29 18:47 -30.07359 27.20933 12124 ft 353 kts 206°
2026-04-29 18:47 -30.09582 27.19695 12373 ft 354 kts 206°
2026-04-29 18:47 -30.11850 27.18432 12627 ft 355 kts 206°
2026-04-29 18:47 -30.14144 27.17152 12883 ft 357 kts 206°
2026-04-29 18:48 -30.16399 27.15894 13134 ft 358 kts 206°
2026-04-29 18:48 -30.18650 27.14638 13384 ft 359 kts 206°
2026-04-29 18:48 -30.20908 27.13378 13633 ft 361 kts 206°
2026-04-29 18:48 -30.23149 27.12125 13881 ft 362 kts 206°
2026-04-29 18:49 -30.25435 27.10848 14131 ft 363 kts 206°
2026-04-29 18:49 -30.27714 27.09573 14380 ft 365 kts 206°
2026-04-29 18:49 -30.30036 27.08274 14633 ft 366 kts 206°
2026-04-29 18:49 -30.32327 27.06991 14881 ft 367 kts 206°
2026-04-29 18:50 -30.34620 27.05707 15129 ft 369 kts 206°
2026-04-29 18:50 -30.36931 27.04412 15377 ft 370 kts 206°
2026-04-29 18:50 -30.39263 27.03104 15627 ft 371 kts 206°
2026-04-29 18:50 -30.41587 27.01801 15876 ft 373 kts 206°
2026-04-29 18:51 -30.43922 27.00490 16124 ft 374 kts 206°
2026-04-29 18:51 -30.46277 26.99167 16374 ft 376 kts 206°
2026-04-29 18:51 -30.48634 26.97843 16624 ft 377 kts 206°
2026-04-29 18:51 -30.50999 26.96513 16873 ft 378 kts 206°
2026-04-29 18:52 -30.53376 26.95176 17124 ft 380 kts 206°
2026-04-29 18:52 -30.55768 26.93830 17375 ft 381 kts 206°
2026-04-29 18:52 -30.58168 26.92479 17625 ft 383 kts 206°
2026-04-29 18:52 -30.60563 26.91130 17877 ft 384 kts 206°
2026-04-29 18:53 -30.62979 26.89774 18126 ft 385 kts 206°
2026-04-29 18:53 -30.65371 26.88419 18377 ft 387 kts 207°
2026-04-29 18:53 -30.67824 26.87029 18665 ft 388 kts 206°
2026-04-29 18:53 -30.70253 26.85668 18930 ft 390 kts 206°
2026-04-29 18:54 -30.72705 26.84267 19193 ft 392 kts 206°
2026-04-29 18:54 -30.75176 26.82870 19487 ft 393 kts 207°
2026-04-29 18:54 -30.77664 26.81541 19748 ft 395 kts 200°
2026-04-29 18:54 -30.80286 26.80527 20029 ft 397 kts 199°
2026-04-29 18:55 -30.82917 26.79512 20317 ft 399 kts 199°
2026-04-29 18:55 -30.85545 26.78486 20586 ft 400 kts 198°
2026-04-29 18:55 -30.88208 26.77465 20864 ft 402 kts 198°
2026-04-29 18:55 -30.90842 26.76444 21132 ft 404 kts 199°
2026-04-29 18:56 -30.93498 26.75385 21418 ft 405 kts 200°
2026-04-29 18:56 -30.96200 26.74329 21695 ft 407 kts 198°
2026-04-29 18:56 -30.98887 26.73272 21973 ft 409 kts 198°
2026-04-29 18:56 -31.01596 26.72213 22238 ft 410 kts 199°
2026-04-29 18:57 -31.04304 26.71148 22522 ft 412 kts 198°
2026-04-29 18:57 -31.07049 26.70069 22793 ft 413 kts 199°
2026-04-29 18:57 -31.09776 26.69019 23078 ft 415 kts 199°
2026-04-29 18:57 -31.12558 26.67949 23354 ft 417 kts 199°
2026-04-29 18:58 -31.15291 26.66841 23644 ft 419 kts 199°
2026-04-29 18:58 -31.18040 26.65766 23907 ft 421 kts 199°
2026-04-29 18:58 -31.20821 26.64670 24186 ft 423 kts 198°
2026-04-29 18:58 -31.23619 26.63572 24460 ft 424 kts 199°
2026-04-29 18:59 -31.26448 26.62461 24740 ft 426 kts 199°
2026-04-29 18:59 -31.29244 26.61360 25015 ft 428 kts 199°
2026-04-29 18:59 -31.32094 26.60237 25294 ft 430 kts 199°
2026-04-29 18:59 -31.34922 26.59122 25569 ft 431 kts 199°
2026-04-29 19:00 -31.37755 26.58004 25843 ft 433 kts 199°
2026-04-29 19:00 -31.40628 26.56870 26120 ft 434 kts 199°
2026-04-29 19:00 -31.43482 26.55743 26394 ft 436 kts 199°
2026-04-29 19:00 -31.46389 26.54594 26671 ft 437 kts 199°
2026-04-29 19:01 -31.49321 26.53434 26950 ft 437 kts 199°
2026-04-29 19:01 -31.52221 26.52286 27225 ft 438 kts 199°
2026-04-29 19:01 -31.55146 26.51127 27502 ft 439 kts 199°
2026-04-29 19:01 -31.58055 26.49973 27776 ft 439 kts 199°
2026-04-29 19:02 -31.60953 26.48823 28049 ft 439 kts 199°
2026-04-29 19:02 -31.62875 26.48059 28230 ft 439 kts 199°
2026-04-29 19:02 -31.66728 26.46527 28597 ft 439 kts 199°
2026-04-29 19:02 -31.69654 26.45395 28859 ft 439 kts 199°
2026-04-29 19:03 -31.72512 26.44236 29122 ft 438 kts 199°
2026-04-29 19:03 -31.75389 26.43080 29411 ft 437 kts 199°
2026-04-29 19:03 -31.78270 26.41939 29693 ft 436 kts 198°
2026-04-29 19:03 -31.81185 26.40767 29777 ft 440 kts 198°
2026-04-29 19:04 -31.87056 26.38444 29757 ft 449 kts 198°
2026-04-29 19:04 -31.92986 26.36050 29790 ft 453 kts 198°
2026-04-29 19:05 -31.98981 26.33652 29763 ft 456 kts 199°
2026-04-29 19:05 -32.05028 26.31231 29761 ft 458 kts 199°
2026-04-29 19:06 -32.11082 26.28806 29764 ft 459 kts 199°
2026-04-29 19:07 -32.20178 26.25174 29762 ft 459 kts 200°
2026-04-29 19:07 -32.26236 26.22723 29769 ft 459 kts 199°
2026-04-29 19:08 -32.32298 26.20263 29769 ft 459 kts 199°
2026-04-29 19:08 -32.38281 26.17603 29655 ft 460 kts 212°
2026-04-29 19:08 -32.40595 26.15070 29615 ft 457 kts 232°
2026-04-29 19:09 -32.42292 26.11852 29539 ft 459 kts 239°
2026-04-29 19:09 -32.45402 26.05329 29359 ft 458 kts 241°
2026-04-29 19:09 -32.46925 26.02009 29250 ft 457 kts 242°
2026-04-29 19:10 -32.48450 25.98694 29145 ft 455 kts 241°
2026-04-29 19:10 -32.51437 25.92121 28946 ft 454 kts 242°
2026-04-29 19:10 -32.52943 25.88856 28845 ft 453 kts 242°
2026-04-29 19:11 -32.54440 25.85588 28737 ft 453 kts 241°
2026-04-29 19:11 -32.57403 25.79013 28549 ft 452 kts 242°
2026-04-29 19:12 -32.60374 25.72433 28313 ft 450 kts 241°
2026-04-29 19:12 -32.61856 25.69163 28130 ft 449 kts 242°
2026-04-29 19:12 -32.63340 25.65901 27999 ft 448 kts 241°
2026-04-29 19:12 -32.63834 25.64811 27969 ft 447 kts 241°
2026-04-29 19:13 -32.66263 25.59428 27758 ft 446 kts 241°
2026-04-29 19:13 -32.67722 25.56187 27626 ft 445 kts 241°
2026-04-29 19:13 -32.69172 25.52970 27511 ft 444 kts 242°
2026-04-29 19:13 -32.70629 25.49703 27384 ft 443 kts 242°
2026-04-29 19:14 -32.72082 25.46506 27249 ft 443 kts 242°
2026-04-29 19:14 -32.73523 25.43268 27135 ft 442 kts 241°
2026-04-29 19:14 -32.74971 25.40052 27005 ft 441 kts 242°
2026-04-29 19:14 -32.76403 25.36832 26875 ft 440 kts 242°
2026-04-29 19:15 -32.77824 25.33654 26749 ft 439 kts 242°
2026-04-29 19:15 -32.79259 25.30425 26627 ft 438 kts 242°
2026-04-29 19:15 -32.80679 25.27267 26516 ft 438 kts 242°
2026-04-29 19:15 -32.82110 25.24063 26379 ft 437 kts 243°
2026-04-29 19:16 -32.83531 25.20866 26261 ft 436 kts 242°
2026-04-29 19:16 -32.84952 25.17691 26132 ft 435 kts 242°
2026-04-29 19:16 -32.86355 25.14518 26007 ft 434 kts 242°
2026-04-29 19:16 -32.87768 25.11335 25887 ft 433 kts 242°
2026-04-29 19:17 -32.89176 25.08175 25755 ft 433 kts 242°
2026-04-29 19:17 -32.90582 25.05025 25633 ft 432 kts 243°
2026-04-29 19:17 -32.91985 25.01857 25486 ft 431 kts 242°
2026-04-29 19:17 -32.93369 24.98738 25339 ft 430 kts 242°
2026-04-29 19:18 -32.94755 24.95585 25196 ft 429 kts 242°
2026-04-29 19:18 -32.95675 24.93496 25096 ft 428 kts 243°
2026-04-29 19:18 -32.97518 24.89349 24880 ft 427 kts 242°
2026-04-29 19:18 -32.98894 24.86223 24734 ft 426 kts 242°
2026-04-29 19:19 -33.00281 24.83084 24582 ft 425 kts 242°
2026-04-29 19:19 -33.01635 24.80013 24431 ft 424 kts 242°
2026-04-29 19:19 -33.03001 24.76889 24277 ft 423 kts 243°
2026-04-29 19:19 -33.04368 24.73774 24122 ft 422 kts 242°
2026-04-29 19:20 -33.05716 24.70697 23968 ft 421 kts 242°
2026-04-29 19:20 -33.07086 24.67637 23820 ft 420 kts 242°
2026-04-29 19:20 -33.08429 24.64559 23665 ft 419 kts 242°
2026-04-29 19:20 -33.09777 24.61471 23517 ft 418 kts 242°
2026-04-29 19:21 -33.11126 24.58414 23370 ft 417 kts 242°
2026-04-29 19:21 -33.12461 24.55370 23212 ft 416 kts 242°
2026-04-29 19:21 -33.13784 24.52336 23055 ft 415 kts 242°
2026-04-29 19:21 -33.15108 24.49287 22911 ft 414 kts 243°
2026-04-29 19:22 -33.16436 24.46221 22774 ft 413 kts 242°
2026-04-29 19:22 -33.17749 24.43200 22535 ft 413 kts 242°
2026-04-29 19:22 -33.19076 24.40173 22283 ft 410 kts 243°
2026-04-29 19:22 -33.20380 24.37166 22025 ft 409 kts 242°
2026-04-29 19:23 -33.21699 24.34143 21768 ft 407 kts 243°
2026-04-29 19:23 -33.23000 24.31164 21511 ft 406 kts 242°
2026-04-29 19:23 -33.24303 24.28168 21269 ft 404 kts 242°
2026-04-29 19:23 -33.25584 24.25231 21026 ft 403 kts 243°
2026-04-29 19:24 -33.26867 24.22267 20766 ft 401 kts 243°
2026-04-29 19:24 -33.28154 24.19302 20515 ft 400 kts 243°
2026-04-29 19:24 -33.29414 24.16394 20267 ft 398 kts 243°
2026-04-29 19:24 -33.30686 24.13452 20015 ft 396 kts 243°
2026-04-29 19:25 -33.31952 24.10524 19764 ft 395 kts 243°
2026-04-29 19:25 -33.33208 24.07614 19513 ft 394 kts 243°
2026-04-29 19:25 -33.34459 24.04714 19262 ft 392 kts 243°
2026-04-29 19:25 -33.35712 24.01807 19009 ft 391 kts 243°
2026-04-29 19:26 -33.36945 23.98946 18760 ft 389 kts 243°
2026-04-29 19:26 -33.38187 23.96060 18508 ft 388 kts 243°
2026-04-29 19:26 -33.39429 23.93248 18250 ft 385 kts 239°
2026-04-29 19:26 -33.40826 23.90564 17931 ft 371 kts 238°
2026-04-29 19:27 -33.42161 23.87993 17652 ft 357 kts 238°
2026-04-29 19:27 -33.43456 23.85521 17407 ft 343 kts 238°
2026-04-29 19:27 -33.44696 23.83161 17163 ft 331 kts 238°
2026-04-29 19:27 -33.45913 23.80848 16932 ft 328 kts 238°
2026-04-29 19:28 -33.47131 23.78534 16708 ft 328 kts 238°
2026-04-29 19:28 -33.48356 23.76208 16484 ft 330 kts 237°
2026-04-29 19:28 -33.49617 23.73814 16289 ft 347 kts 237°
2026-04-29 19:28 -33.50908 23.71360 16072 ft 349 kts 237°
2026-04-29 19:29 -33.52188 23.68926 15847 ft 347 kts 237°
2026-04-29 19:29 -33.53468 23.66490 15621 ft 345 kts 237°
2026-04-29 19:29 -33.54744 23.64062 15395 ft 344 kts 237°
2026-04-29 19:29 -33.56026 23.61620 15167 ft 342 kts 237°
2026-04-29 19:30 -33.57274 23.59240 14944 ft 341 kts 237°
2026-04-29 19:30 -33.58545 23.56815 14718 ft 340 kts 237°
2026-04-29 19:30 -33.59792 23.54432 14493 ft 339 kts 238°
2026-04-29 19:30 -33.61057 23.52025 14265 ft 338 kts 237°
2026-04-29 19:31 -33.62301 23.49646 14082 ft 336 kts 237°
2026-04-29 19:31 -33.63537 23.47281 13942 ft 336 kts 238°
2026-04-29 19:31 -33.64781 23.44903 13817 ft 335 kts 237°
2026-04-29 19:31 -33.66010 23.42547 13692 ft 335 kts 237°
2026-04-29 19:32 -33.67245 23.40181 13567 ft 334 kts 237°
2026-04-29 19:32 -33.68481 23.37812 13439 ft 334 kts 238°
2026-04-29 19:32 -33.69710 23.35453 13180 ft 329 kts 238°
2026-04-29 19:32 -33.70911 23.33144 12920 ft 322 kts 238°
2026-04-29 19:33 -33.72092 23.30874 12668 ft 320 kts 238°
2026-04-29 19:33 -33.73270 23.28615 12421 ft 319 kts 238°
2026-04-29 19:33 -33.74446 23.26350 12170 ft 318 kts 238°
2026-04-29 19:33 -33.75618 23.24097 11921 ft 317 kts 238°
2026-04-29 19:34 -33.76778 23.21861 11672 ft 316 kts 238°
2026-04-29 19:34 -33.77944 23.19616 11422 ft 315 kts 238°
2026-04-29 19:34 -33.79092 23.17405 11173 ft 314 kts 238°
2026-04-29 19:34 -33.80242 23.15182 10922 ft 312 kts 238°
2026-04-29 19:35 -33.81389 23.12969 10673 ft 311 kts 238°
2026-04-29 19:35 -33.82516 23.10790 10410 ft 301 kts 238°
2026-04-29 19:35 -33.83601 23.08692 10144 ft 290 kts 238°
2026-04-29 19:35 -33.84645 23.06673 9884 ft 284 kts 238°
2026-04-29 19:36 -33.85685 23.04660 9632 ft 283 kts 238°
2026-04-29 19:36 -33.86729 23.02639 9383 ft 283 kts 238°
2026-04-29 19:36 -33.87758 23.00647 9123 ft 282 kts 238°
2026-04-29 19:36 -33.88797 22.98633 8740 ft 281 kts 238°
2026-04-29 19:37 -33.89806 22.96674 8364 ft 276 kts 238°
2026-04-29 19:37 -33.90477 22.95372 8111 ft 273 kts 238°
2026-04-29 19:37 -33.91797 22.92805 7605 ft 268 kts 238°
2026-04-29 19:37 -33.92453 22.91529 7350 ft 265 kts 238°
2026-04-29 19:39 -33.93372 22.89740 6990 ft 262 kts 238°
2026-04-29 19:39 -33.94321 22.87894 6614 ft 259 kts 238°
2026-04-29 19:39 -33.95266 22.86055 6235 ft 256 kts 238°
2026-04-29 19:39 -33.96192 22.84252 5861 ft 254 kts 238°
2026-04-29 19:40 -33.97112 22.82462 5485 ft 251 kts 238°
2026-04-29 19:40 -33.98033 22.80668 5152 ft 246 kts 238°
2026-04-29 19:40 -33.98865 22.79034 5306 ft 217 kts 239°
2026-04-29 19:40 -33.99184 22.77484 5213 ft 204 kts 268°
2026-04-29 19:41 -33.99246 22.76162 5220 ft 185 kts 264°
2026-04-29 19:41 -33.99312 22.74654 5247 ft 180 kts 267°
2026-04-29 19:41 -33.99356 22.73155 5306 ft 180 kts 267°
2026-04-29 19:41 -33.99411 22.71646 5259 ft 180 kts 266°
2026-04-29 19:42 -33.99465 22.70135 5256 ft 180 kts 266°
2026-04-29 19:42 -33.99482 22.69641 5255 ft 180 kts 266°
2026-04-29 19:42 -33.99571 22.67114 5189 ft 182 kts 266°
2026-04-29 19:42 -33.99624 22.65604 4962 ft 180 kts 266°
2026-04-29 19:43 -33.99675 22.64148 4719 ft 170 kts 266°
2026-04-29 19:43 -33.99726 22.62722 4506 ft 168 kts 266°
2026-04-29 19:43 -33.99774 22.61339 4324 ft 165 kts 266°
2026-04-29 19:43 -33.99818 22.59948 4142 ft 166 kts 267°
2026-04-29 19:44 -33.99862 22.58563 3913 ft 166 kts 266°
2026-04-29 19:44 -33.99915 22.57177 3680 ft 166 kts 266°
2026-04-29 19:44 -33.99955 22.55801 3450 ft 165 kts 267°
2026-04-29 19:44 -34.00004 22.54435 3205 ft 156 kts 266°
2026-04-29 19:45 -34.00051 22.53145 2981 ft 151 kts 266°
2026-04-29 19:45 -34.00095 22.51886 2780 ft 150 kts 266°
2026-04-29 19:45 -34.00137 22.50635 2582 ft 150 kts 266°
2026-04-29 19:45 -34.00177 22.49345 2374 ft 149 kts 266°
2026-04-29 19:46 -34.00222 22.48123 2178 ft 136 kts 266°
2026-04-29 19:46 -34.00274 22.46972 1941 ft 133 kts 265°
2026-04-29 19:46 -34.00308 22.45796 1757 ft 138 kts 265°
2026-04-29 19:46 -34.00342 22.44606 1636 ft 138 kts 268°
2026-04-29 19:47 -34.00374 22.43477 1473 ft 132 kts 265°
2026-04-29 19:47 -34.00422 22.42320 1258 ft 136 kts 267°
2026-04-29 19:47 -34.00460 22.41120 1092 ft 140 kts 266°
2026-04-29 19:47 -34.00497 22.39914 862 ft 140 kts 265°
2026-04-29 19:48 -34.00529 22.38746 658 ft 130 kts 266°
2026-04-29 19:48 -34.00547 22.38084 644 ft 104 kts 266°
2026-04-29 19:48 -34.00573 22.37174 628 ft 40 kts 265°
2026-04-29 19:48 -34.00583 22.36960 626 ft 19 kts 269°
2026-04-29 19:49 -34.00583 22.36827 623 ft 11 kts 274°
2026-04-29 19:49 -34.00565 22.36791 623 ft 2 kts 332°
2026-04-29 19:49 -34.00512 22.36795 623 ft 16 kts 21°
2026-04-29 19:49 -34.00400 22.36914 624 ft 23 kts 56°
2026-04-29 19:50 -34.00368 22.37124 624 ft 28 kts 84°
2026-04-29 19:50 -34.00361 22.37273 626 ft 30 kts 87°
2026-04-29 19:50 -34.00353 22.37529 631 ft 34 kts 88°
2026-04-29 19:51 -34.00339 22.37816 639 ft 29 kts 83°
2026-04-29 19:51 -34.00337 22.38028 644 ft 24 kts 89°
2026-04-29 19:51 -34.00330 22.38220 646 ft 13 kts 85°
2026-04-29 19:51 -34.00328 22.38297 646 ft 0 kts 88°